Regional Weather Roundup
Issued by NWS Columbia, SC

Home | Current Version | Previous Version | Text Only | Print | Product List | Glossary On
Versions: 1 2 3 4 5 6 7 8 9 10 11 12 13 14 15 16 17 18 19 20 21 22 23 24 25 26 27
000
ASUS42 KCAE 222210
RWRCAE
REGIONAL WEATHER ROUNDUP
NATIONAL WEATHER SERVICE COLUMBIA SC
500 PM EST WED NOV 22 2017

NOTE: "FAIR" INDICATES FEW OR NO CLOUDS BELOW 12,000 FEET WITH NO
SIGNIFICANT WEATHER AND/OR OBSTRUCTIONS TO VISIBILITY.

NOT ALL STATIONS ARE QUALITY CONTROLLED BY THE NATIONAL
WEATHER SERVICE. USE DATA WITH CAUTION...ESPECIALLY
DEWPOINT OBSERVATIONS.

SCZ001>056-GAZ040-063>065-077-222300-
...UPSTATE SOUTH CAROLINA...

CITY           SKY/WX    TMP DP  RH WIND       PRES   REMARKS
ANDERSON       CLOUDY    60  41  49 SE5       30.02R
LIBERTY        CLOUDY    61  36  38 E5        30.01R
SPARTANBURG    CLOUDY    59  30  33 CALM      30.02R
CLEMSON        CLOUDY    61  43  51 CALM      30.02R
GREENVILLE     CLOUDY    61  24  24 N9        30.03S
GREENWOOD      PTCLDY    59  36  42 CALM      30.03R
GREER          CLOUDY    59  12  15 N6        30.02F
ROCK HILL      CLOUDY    59  37  44 CALM      30.04R
CHESTER        PTCLDY    57  32  38 NE5       30.04R
LAURENS        CLOUDY    59  43  55 E3        30.02R


...CENTRAL SOUTH CAROLINA...

CITY           SKY/WX    TMP DP  RH WIND       PRES   REMARKS
COLUMBIA APT   CLOUDY    65  51  60 N3        30.01R
COLUMBIA OWENS CLOUDY    63  49  60 CALM      30.02R
MCENTIRE ANGB  PTCLDY    62  48  59 NW6       30.01R
ORANGEBURG     PTCLDY    65  48  54 N6        30.00R
SUMTER SHAW    PTCLDY    64  43  46 N6        29.98R
NEWBERRY       CLOUDY    59  45  58 E3        30.05S
AIKEN          FAIR      61  46  59 N3        30.04R
BARNWELL         N/A     66  52  59 CALM      30.00S
MANNING        FAIR      63  55  77 MISG      30.00R
CAMDEN         FAIR      61  43  51 N6        30.02R
LANCASTER      PTCLDY    61  36  39 N3        30.03R
WINNSBORO      CLOUDY    59  45  58 CALM      30.02R


...EASTERN AND COASTAL SOUTH CAROLINA...

CITY           SKY/WX    TMP DP  RH WIND       PRES   REMARKS
MYRTLE BEACH   CLEAR     66  51  58 N6        30.00R
N MYRTLE BCH   CLEAR     65  49  56 NW3       29.98R
CONWAY         FAIR      61  54  77 CALM      30.00R
MARION         FAIR      61  41  48 N5        30.01R
HARTSVILLE     FAIR      59  39  47 N3        30.02R
FLORENCE       PTCLDY    62  43  49 N6        30.02R
DARLINGTON     PTCLDY    61  40  45 N7        30.03R
CHARLESTON APT MOCLDY    62  56  80 N5        29.99R
MOUNT PLEASANT FAIR      64  57  77 NW3       29.99R
WALTERBORO     PTCLDY    64  55  72 N3        30.01R
BEAUFORT       PTCLDY    66  59  78 W5        30.00R


...EASTERN GEORGIA...

CITY           SKY/WX    TMP DP  RH WIND       PRES   REMARKS
AUGUSTA BUSH F PTCLDY    63  50  62 NE7       30.00R
AUGUSTA DANIEL PTCLDY    65  52  62 N7        30.01R
THOMSON        PTCLDY    63  52  67 E3        30.07R
WASHINGTON     FAIR      59  50  72 NE3       30.02R
CLAXTON        FAIR      64  61  89 CALM      30.01R
SYLVANIA       PTCLDY    65  58  76 CALM      30.01R
STATESBORO     PTCLDY    64  57  78 CALM      30.01R
SAVANNAH       MOCLDY    64  58  80 CALM      30.01R


...SOUTHERN NORTH CAROLINA...

CITY           SKY/WX    TMP DP  RH WIND       PRES   REMARKS
CHARLOTTE      CLOUDY    59  35  40 N6        30.04R
MONROE         PTCLDY    57  36  45 NE6       30.03R
WADESBORO      CLOUDY    59  31  34 N5        30.04R
RUTHERFORDTON  CLEAR     58  23  25 N9        30.05R
ASHEVILLE      CLEAR     51  23  33 N14       30.07S

$$




USA.gov is the U.S. government's official web portal to all federal, state and local government web resources and services.